Track STARLINK-1398 now! 10-day predictions STARLINK-1398 is classified as:
1 45699U 20035AU 22138.48679012 -.00000351 00000-0 -46608-5 0 9996 2 45699 53.0552 161.9826 0001538 65.1535 294.9614 15.06401294109467